Home   Weather   Dryden   Past weeks
Flag for Canada

Past Weather in Dryden, Ontario, Canada — Yesterday and Last 2 Weeks

Now
46 °F

Fog.


Feels Like: 46 °F
Forecast: 65 / 48 °F
Wind: 2 mph from North

Location: Dryden Airport

Current Time: Sep 23, 2019 at 8:21:33 am

Latest Report: Sep 23, 2019 at 7:18 am


Visibility: 1 mi

Pressure: 29.88 "Hg

Humidity: 100%

Dew Point: 46 °F

Location of DrydenLocation

Past Weather in Dryden — Graph

°F

Dryden Temperature Yesterday

Maximum temperature yesterday: 63 °F (at 2:00 pm)
Minimum temperature yesterday: 50 °F (at 11:00 pm)
Average temperature yesterday: 58 °F

High & Low Weather Summary for the Past Weeks

 TemperatureHumidityPressure
High82 °F (Sep 16, 3:00 pm)100% (Sep 8, 7:00 am)30.39 "Hg (Sep 8, 7:00 am)
Low41 °F (Sep 8, 7:00 am)48% (Sep 16, 4:00 pm)29.55 "Hg (Sep 21, 3:04 pm)
Average57 °F89%29.94 "Hg
* Reported Sep 8 7:00 am — Sep 23 7:03 am, Dryden. Weather by CustomWeather, © 2019

Note: Actual official high and low records may vary slightly from our data, if they occured in-between our weather recording intervals... More about our weather records

Advertising

Dryden Weather History for the Previous 24 Hours

Scroll right to see more
 ConditionsComfort  
Time TempWeatherWind HumidityBarometerVisibility
7:03 am
Mon, Sep 23
45 °FFog.3 mph100%29.88 "Hg1 mi
6:56 am46 °FFog.3 mph93%29.88 "Hg1 mi
6:26 am45 °FFog.2 mph100%29.88 "Hg1 mi
6:00 am45 °FFog.2 mph100%29.87 "Hg1 mi
5:25 am46 °FFog.2 mph100%29.86 "Hg1 mi
5:05 am46 °FFog.2 mph100%29.86 "Hg1 mi
4:59 am48 °FFog.No wind94%29.86 "Hg1 mi
4:37 am46 °FFog.2 mph100%29.86 "Hg2 mi
4:25 am48 °FFog.5 mph94%29.86 "Hg3 mi
3:36 am46 °FFog.6 mph100%29.86 "Hg6 mi
3:20 am46 °FFog.3 mph100%29.86 "Hg5 mi
3:00 am46 °FClear.5 mph100%29.86 "Hg9 mi
2:40 am46 °FFog.6 mph100%29.86 "Hg3 mi
2:16 am46 °FFog.5 mph93%29.85 "Hg2 mi
2:00 am46 °FClear.3 mph100%29.85 "Hg9 mi
1:00 am50 °FClear.3 mph94%29.84 "Hg9 mi
12:00 am50 °FClear.6 mph94%29.84 "Hg9 mi
11:00 pm
Sun, Sep 22
50 °FClear.5 mph94%29.84 "Hg9 mi
10:00 pm54 °FPassing clouds.2 mph88%29.84 "Hg9 mi
9:00 pm52 °FClear.5 mph94%29.84 "Hg9 mi
8:00 pm57 °FClear.3 mph77%29.81 "Hg9 mi
7:00 pm59 °FOvercast.2 mph72%29.80 "Hg9 mi
6:00 pm61 °FPartly sunny.3 mph68%29.79 "Hg9 mi
5:00 pm63 °FMore clouds than sun.6 mph68%29.78 "Hg9 mi
4:00 pm61 °FMostly cloudy.9 mph72%29.77 "Hg9 mi
3:00 pm61 °FCloudy.13 mph72%29.77 "Hg9 mi
2:00 pm63 °FPartly sunny.7 mph68%29.77 "Hg9 mi
1:00 pm61 °FScattered clouds.12 mph72%29.78 "Hg9 mi
12:37 pm59 °FCloudy.6 mph77%29.78 "Hg9 mi
12:13 pm59 °FBroken clouds.12 mph77%29.77 "Hg9 mi
11:54 am59 °FPartly sunny.9 mph77%29.76 "Hg9 mi
11:32 am61 °FPartly sunny.14 mph68%29.76 "Hg9 mi
11:04 am59 °FScattered clouds.10 mph77%29.75 "Hg9 mi
11:00 am59 °FPartly sunny.13 mph77%29.75 "Hg9 mi
10:17 am57 °FPartly sunny.10 mph82%29.75 "Hg9 mi
9:12 am55 °FCloudy.10 mph94%29.74 "Hg9 mi
8:00 am54 °FOvercast.12 mph100%29.70 "Hg9 mi
Weather by CustomWeather, © 2019

See weather overview